Location: Fornova de Taro
(44.7000°N, 10.1000°E)
Time: 21:27:47
(UTC+00:00)

SME Rocket - Pass Details

Date: 26 May 2022
Orbit: 551 x 2650 km, 99.9° (Epoch: 02 July)

Event Time Altitude Azimuth Distance (km) Brightness Sun altitude
Exits shadow 01:24:37 32° 245° (WSW) 1,056 3.8 -18.0°
Maximum altitude 01:25:12 34° 264° (W) 1,043 3.9 -18.0°
Drops below altitude 10° 01:29:34 10° 330° (NNW) 2,317 6.3 -17.5°
Sets 01:32:27 0° 339° (NNW) 3,506 7.4 -17.3°
